College Station, TX

9:19 PM CDT on May 28, 2017 (GMT -0500)
Easterwood

Weather History for KCLL - March, 2013

Change the Weather History Date:

Saturday, March 16, 2013

  Actual Average Record
Temperature  
Mean Temperature 70 °F 61 °F  
Max Temperature 82 °F 72 °F 84 °F (1921)
Min Temperature 57 °F 51 °F 30 °F (1913)
Degree Days  
Heating Degree Days 0 5  
Month to date heating degree days 120 110  
Since 1 July heating degree days 1179 1497  
Cooling Degree Days 5 2  
Month to date cooling degree days 12 23  
Year to date cooling degree days 47 51  
Growing Degree Days 20 (Base 50)    
Moisture  
Dew Point 57 °F    
Average Humidity 65    
Maximum Humidity 93    
Minimum Humidity 37    
Precipitation  
Precipitation 0.00 in 0.10 in 1.84 in (1979)
Month to date precipitation 1.30 1.63  
Year to date precipitation 7.46 7.72  
Sea Level Pressure  
Sea Level Pressure 29.89 in    
Wind  
Wind Speed 15 mph (South)    
Max Wind Speed 25 mph    
Max Gust Speed 33 mph    
Visibility 10 miles    
Events      
T = Trace of Precipitation, MM = Missing Value Source: NWS Daily Summary

Daily Weather History Graph

Daily Weather History Graph

Search for Another Location

Airport or City:

Trip Planner

Search our weather history database for the weather conditions in past years. The results will help you decide how hot, cold, wet, or windy it might be!

Date:

Astronomy

Mar. 16, 2013 Rise Set
Actual Time 7:33 AM CDT 7:34 PM CDT
Civil Twilight 7:09 AM CDT 7:58 PM CDT
Nautical Twilight 6:41 AM CDT 8:26 PM CDT
Astronomical Twilight 6:13 AM CDT 8:54 PM CDT
Moon 10:24 AM CDT (3/16) No Moon Set
Length of Visible Light 12h 48m
Length of Day
12h 00m
Waxing Crescent, 23% of the Moon is Illuminated
Mar 16
Waxing Crescent
Mar 19
First Quarter
Mar 27
Full
Apr 2
Last Quarter
Apr 10
New

Hourly Weather History & Observations

Time (CDT) Temp. Heat Index Dew Point Humidity Pressure Visibility Wind Dir Wind Speed Gust Speed Precip Events Conditions
12:53 AM 61.0 °F - 55.9 °F 83% 30.01 in 10.0 mi South 9.2 mph - N/A   Clear
1:53 AM 60.1 °F - 57.0 °F 90% 29.99 in 10.0 mi South 10.4 mph - N/A   Clear
2:53 AM 59.0 °F - 57.0 °F 93% 29.98 in 10.0 mi South 8.1 mph - N/A   Clear
3:53 AM 60.1 °F - 55.9 °F 86% 29.95 in 10.0 mi South 9.2 mph - N/A   Clear
4:53 AM 59.0 °F - 55.9 °F 90% 29.94 in 10.0 mi SSW 9.2 mph - N/A   Partly Cloudy
5:53 AM 60.1 °F - 55.9 °F 86% 29.94 in 10.0 mi South 9.2 mph - N/A   Clear
6:53 AM 59.0 °F - 55.9 °F 90% 29.94 in 10.0 mi South 4.6 mph - N/A   Clear
7:53 AM 57.9 °F - 55.9 °F 93% 29.94 in 10.0 mi South 6.9 mph - N/A   Clear
8:53 AM 61.0 °F - 57.0 °F 87% 29.95 in 10.0 mi South 11.5 mph - N/A   Clear
9:51 AM 64.4 °F - 57.2 °F 77% 29.96 in 10.0 mi South 12.7 mph 19.6 mph N/A   Mostly Cloudy
9:53 AM 64.9 °F - 59.0 °F 81% 29.95 in 10.0 mi South 10.4 mph 19.6 mph N/A   Mostly Cloudy
10:53 AM 71.1 °F - 60.1 °F 68% 29.94 in 10.0 mi SSW 15.0 mph 26.5 mph N/A   Mostly Cloudy
11:04 AM 71.6 °F - 59.0 °F 64% 29.95 in 10.0 mi South 19.6 mph 26.5 mph N/A   Scattered Clouds
11:53 AM 73.9 °F - 59.0 °F 59% 29.93 in 10.0 mi South 17.3 mph - N/A   Scattered Clouds
12:00 PM 75.2 °F - 57.2 °F 53% 29.94 in 10.0 mi South 17.3 mph 26.5 mph N/A   Mostly Cloudy
12:07 PM 75.2 °F - 57.2 °F 53% 29.93 in 10.0 mi SSW 18.4 mph 26.5 mph N/A   Mostly Cloudy
12:53 PM 78.1 °F - 55.9 °F 46% 29.91 in 10.0 mi SSW 16.1 mph 25.3 mph N/A   Partly Cloudy
1:53 PM 79.0 °F - 55.9 °F 45% 29.88 in 10.0 mi South 18.4 mph 25.3 mph N/A   Scattered Clouds
2:53 PM 80.1 °F 80.2 °F 55.9 °F 43% 29.83 in 10.0 mi South 18.4 mph 23.0 mph N/A   Partly Cloudy
3:53 PM 82.0 °F 81.4 °F 55.0 °F 39% 29.80 in 10.0 mi South 13.8 mph 26.5 mph N/A   Partly Cloudy
4:53 PM 82.0 °F 81.3 °F 54.0 °F 38% 29.78 in 10.0 mi SSE 18.4 mph 27.6 mph N/A   Clear
5:53 PM 80.1 °F 80.0 °F 54.0 °F 40% 29.78 in 10.0 mi South 20.7 mph 26.5 mph N/A   Clear
6:53 PM 77.0 °F - 57.0 °F 50% 29.78 in 10.0 mi South 20.7 mph 29.9 mph N/A   Clear
7:53 PM 73.0 °F - 57.0 °F 57% 29.79 in 10.0 mi South 19.6 mph 31.1 mph N/A   Clear
8:53 PM 71.1 °F - 59.0 °F 66% 29.81 in 10.0 mi South 18.4 mph 26.5 mph N/A   Partly Cloudy
9:39 PM 69.8 °F - 60.8 °F 73% 29.83 in 10.0 mi South 15.0 mph - N/A   Mostly Cloudy
9:53 PM 69.1 °F - 60.1 °F 73% 29.83 in 10.0 mi South 17.3 mph - N/A   Mostly Cloudy
10:16 PM 68.0 °F - 60.8 °F 78% 29.84 in 10.0 mi South 19.6 mph 24.2 mph N/A   Scattered Clouds
10:53 PM 68.0 °F - 60.1 °F 76% 29.83 in 10.0 mi South 19.6 mph 27.6 mph N/A   Clear
11:14 PM 68.0 °F - 60.8 °F 78% 29.84 in 10.0 mi South 19.6 mph 25.3 mph N/A   Mostly Cloudy
11:53 PM 68.0 °F - 60.1 °F 76% 29.83 in 10.0 mi South 19.6 mph 26.5 mph N/A   Overcast